This is the latest recevied weather packets stored in our database for station/object FW0690. If no packets are shown the sender has not sent any weather packets the latest 10 day(s).
| Time | Temp. | Humidity | Pressure | Rain* | Wind** | Luminosity | Snow |
|---|---|---|---|---|---|---|---|
| 1778049881 | 18.33° C | 43% | 1013.4 hPa | - | - | 25 W/m² | - |
| 1778049521 | 18.33° C | 44% | 1013.5 hPa | - | - | 25 W/m² | - |
| 1778049161 | 17.78° C | 45% | 1013.4 hPa | - | - | 25 W/m² | - |
| 1778048801 | 17.78° C | 46% | 1013.4 hPa | - | - | 25 W/m² | - |
| 1778048441 | 17.22° C | 47% | 1013.5 hPa | - | - | 25 W/m² | - |
| 1778048081 | 16.67° C | 48% | 1013.5 hPa | - | - | 24 W/m² | - |
| 1778047721 | 16.67° C | 49% | 1013.5 hPa | - | - | 20 W/m² | - |
| 1778047361 | 16.11° C | 49% | 1013.5 hPa | - | - | 23 W/m² | - |
| 1778047001 | 15.56° C | 50% | 1013.5 hPa | - | - | 23 W/m² | - |
| 1778046641 | 15° C | 51% | 1013.5 hPa | - | - | 22 W/m² | - |
| 1778046281 | 15° C | 52% | 1013.5 hPa | - | - | 22 W/m² | - |
| 1778045921 | 14.44° C | 52% | 1013.6 hPa | - | - | 21 W/m² | - |
| 1778045561 | 14.44° C | 53% | 1013.6 hPa | - | - | 20 W/m² | - |
| 1778045201 | 13.89° C | 53% | 1013.6 hPa | - | - | 20 W/m² | - |
| 1778044841 | 13.89° C | 53% | 1013.6 hPa | - | - | 18 W/m² | - |
| 1778044481 | 13.89° C | 54% | 1013.5 hPa | - | - | 19 W/m² | - |
| 1778044121 | 13.89° C | 54% | 1013.5 hPa | - | - | 18 W/m² | - |
| 1778043761 | 13.33° C | 54% | 1013.5 hPa | - | - | 16 W/m² | - |
| 1778043401 | 13.33° C | 54% | 1013.5 hPa | - | - | 16 W/m² | - |
| 1778043041 | 13.33° C | 55% | 1013.5 hPa | - | - | 15 W/m² | - |
| 1778042681 | 13.33° C | 55% | 1013.4 hPa | - | - | 14 W/m² | - |
| 1778042321 | 12.78° C | 56% | 1013.3 hPa | - | - | 14 W/m² | - |
| 1778041961 | 12.78° C | 56% | 1013.2 hPa | - | - | 13 W/m² | - |
| 1778041601 | 12.78° C | 56% | 1013.1 hPa | - | - | 12 W/m² | - |
| 1778041241 | 12.22° C | 57% | 1013.1 hPa | - | - | 11 W/m² | - |
* Rain since midnight (hover to see other rain measurements)
** Current wind speed in m/s (hover to see current wind gust speed)